DW9498 Weather Reports


Display with metric or nautical units.
time (UTC)temp
F
wind
direction
speed
MPH
gust
MPH
rain 1hr
in
rain 24hr
in
rain mn
in
humidity
%
barometer
mb
20220706164325 73 349 0.0 0.0 0.00 0.29 0.09 94 1013.4
20220706163335 73 359 1.0 4.0 0.00 0.29 0.09 93 1013.2
20220706162344 73 63 3.0 5.0 0.00 0.29 0.09 92 1013.1
20220706161336 74 63 3.0 5.0 0.00 0.29 0.09 91 1013.6
20220706160324 74 66 1.0 4.0 0.00 0.29 0.09 91 1013.8
20220706155343 74 315 1.0 5.0 0.00 0.29 0.09 91 1013.7
20220706154331 74 346 0.0 3.0 0.00 0.29 0.09 94 1013.1
20220706153343 73 66 2.0 3.0 0.00 0.29 0.09 95 1012.8
20220706152331 73 67 0.0 2.0 0.00 0.29 0.09 95 1012.6
20220706151340 73 67 0.0 1.0 0.00 0.29 0.09 96 1012.6
20220706150329 72 66 0.0 0.0 0.00 0.29 0.09 96 1012.6
20220706145335 72 67 0.0 1.0 0.00 0.29 0.09 96 1012.4
20220706144324 72 67 0.0 0.0 0.00 0.29 0.09 97 1012.5
20220706143331 72 67 0.0 0.0 0.00 0.29 0.09 96 1012.6
20220706142338 72 66 0.0 1.0 0.00 0.29 0.09 96 1013.0
20220706141329 72 67 0.0 0.0 0.00 0.29 0.09 96 1012.9
20220706140337 72 67 0.0 1.0 0.00 0.29 0.09 96 1013.1
20220706135338 72 67 0.0 0.0 0.00 0.29 0.09 95 1013.0
20220706134330 71 67 0.0 1.0 0.00 0.29 0.09 95 1012.9
20220706133336 71 67 0.0 1.0 0.00 0.29 0.09 95 1012.7
20220706132325 71 67 0.0 0.0 0.00 0.29 0.09 95 1012.9
20220706131333 71 67 0.0 1.0 0.00 0.29 0.09 96 1012.9
20220706130326 71 67 0.0 0.0 0.01 0.29 0.09 95 1012.6
20220706125326 71 67 0.0 4.0 0.01 0.29 0.09 95 1012.4
20220706124333 71 67 2.0 3.0 0.01 0.29 0.09 94 1012.3
20220706123341 71 67 1.0 4.0 0.02 0.29 0.09 95 1012.3
20220706122332 71 61 2.0 4.0 0.03 0.29 0.09 96 1012.6
20220706121339 71 61 1.0 3.0 0.03 0.29 0.09 96 1012.7
20220706120324 71 61 2.0 7.0 0.03 0.28 0.08 95 1013.3
20220706115323 71 58 2.0 5.0 0.03 0.28 0.08 95 1013.7
20220706114337 71 50 4.0 7.0 0.04 0.28 0.08 95 1013.8
20220706113324 71 211 1.0 5.0 0.06 0.27 0.07 95 1013.8
20220706112333 72 221 1.0 2.0 0.05 0.26 0.06 96 1014.1
20220706111342 72 221 0.0 1.0 0.05 0.26 0.06 95 1014.5
20220706110334 72 220 0.0 2.0 0.04 0.25 0.05 95 1014.6
20220706105336 73 220 0.0 1.0 0.04 0.25 0.05 95 1014.7
20220706104325 73 221 0.0 1.0 0.03 0.24 0.04 96 1014.9
20220706103333 73 221 0.0 1.0 0.00 0.21 0.01 95 1014.4
20220706102326 73 220 0.0 1.0 0.00 0.21 0.01 95 1013.5
20220706101334 73 220 1.0 2.0 0.01 0.21 0.01 95 1012.9
20220706100341 73 221 0.0 2.0 0.01 0.21 0.01 96 1012.7
20220706095326 73 221 1.0 2.0 0.01 0.21 0.01 96 1012.7
20220706094335 73 221 0.0 0.0 0.01 0.21 0.01 95 1012.2
20220706093323 73 221 0.0 0.0 0.01 0.21 0.01 95 1012.7
20220706092333 73 221 0.0 1.0 0.01 0.21 0.01 95 1012.5
20220706091327 73 221 0.0 2.0 0.00 0.20 0.00 94 1012.1
20220706090335 74 221 0.0 2.0 0.00 0.20 0.00 93 1011.9
20220706085336 74 221 0.0 2.0 0.00 0.20 0.00 92 1012.0
20220706084325 74 221 1.0 2.0 0.00 0.20 0.00 91 1011.9
20220706083337 74 221 1.0 2.0 0.00 0.20 0.00 90 1011.9
20220706082325 74 221 1.0 2.0 0.00 0.20 0.00 90 1011.9
20220706081332 73 221 0.0 1.0 0.00 0.20 0.00 91 1011.4
20220706080338 73 221 0.0 0.0 0.00 0.20 0.00 91 1011.3
20220706075342 73 221 0.0 0.0 0.00 0.20 0.00 91 1011.3
20220706074331 73 221 0.0 0.0 0.00 0.20 0.00 91 1011.0
20220706073340 73 221 0.0 0.0 0.00 0.20 0.00 91 1010.8
20220706072329 73 221 0.0 0.0 0.00 0.20 0.00 91 1010.7
20220706071342 73 221 0.0 0.0 0.00 0.20 0.00 91 1010.8
20220706070330 73 221 0.0 1.0 0.00 0.20 0.00 91 1010.9
20220706065331 73 221 0.0 1.0 0.00 0.20 0.00 91 1011.0
20220706064339 73 221 0.0 1.0 0.00 0.20 0.00 91 1011.0
20220706063329 74 220 0.0 0.0 0.00 0.20 0.00 90 1010.9
20220706062338 74 221 0.0 2.0 0.00 0.20 0.00 89 1010.9
20220706061327 74 221 0.0 1.0 0.00 0.20 0.00 89 1010.8
20220706060340 74 221 0.0 1.0 0.00 0.20 0.00 88 1010.9
20220706055340 74 221 0.0 2.0 0.00 0.20 0.00 88 1010.9
20220706054328 74 221 1.0 2.0 0.00 0.20 0.00 88 1010.9
20220706053338 74 221 0.0 2.0 0.00 0.20 0.00 88 1011.2
20220706052330 74 221 0.0 1.0 0.00 0.20 0.00 87 1011.4
20220706051339 74 221 0.0 1.0 0.00 0.20 0.00 86 1011.4
20220706050327 74 221 0.0 0.0 0.00 0.20 0.00 86 1011.3
20220706045328 74 220 0.0 2.0 0.00 0.20 0.20 85 1011.4
20220706044340 74 221 0.0 1.0 0.00 0.20 0.20 85 1011.2
20220706043327 74 221 0.0 1.0 0.00 0.20 0.20 86 1010.9
20220706042333 74 221 0.0 1.0 0.00 0.20 0.20 86 1011.1
20220706041323 74 220 0.0 0.0 0.00 0.20 0.20 86 1011.0
20220706040335 73 221 0.0 1.0 0.00 0.20 0.20 86 1010.8
20220706035335 73 221 0.0 2.0 0.00 0.20 0.20 86 1011.1
20220706034342 73 221 0.0 1.0 0.00 0.20 0.20 86 1011.1
20220706033331 73 221 0.0 2.0 0.00 0.20 0.20 87 1011.4
20220706032343 73 221 0.0 2.0 0.00 0.20 0.20 87 1011.7
20220706031330 73 221 0.0 2.0 0.00 0.20 0.20 88 1011.5
20220706030337 73 221 0.0 2.0 0.00 0.20 0.20 89 1011.7
20220706025335 73 221 1.0 2.0 0.00 0.20 0.20 89 1011.8
20220706024328 74 221 1.0 3.0 0.00 0.20 0.20 88 1011.3
20220706023334 74 53 1.0 3.0 0.00 0.20 0.20 89 1011.4
20220706022344 74 53 1.0 3.0 0.00 0.20 0.20 89 1011.2
20220706021335 74 51 0.0 4.0 0.00 0.20 0.20 90 1011.2
20220706020343 74 155 1.0 3.0 0.00 0.20 0.20 90 1011.2
20220706015341 74 241 1.0 4.0 0.00 0.20 0.20 92 1011.2
20220706014330 74 243 1.0 3.0 0.02 0.20 0.20 91 1011.2
20220706013342 74 243 0.0 3.0 0.08 0.20 0.20 91 1011.0
20220706012331 74 243 1.0 3.0 0.09 0.20 0.20 91 1011.1
20220706011338 74 243 0.0 5.0 0.20 0.20 0.20 92 1011.1
20220706010327 74 240 1.0 5.0 0.20 0.20 0.20 94 1010.7
20220706005331 73 56 3.0 6.0 0.20 0.20 0.20 93 1010.7
20220706004341 73 56 4.0 9.0 0.18 0.18 0.18 92 1010.5
20220706003330 74 67 5.0 10.0 0.12 0.12 0.12 90 1010.8
20220706002338 75 60 5.0 10.0 0.11 0.11 0.11 87 1010.3
20220706001330 78 43 4.0 16.0 0.00 0.00 0.00 78 1010.1
20220706000338 81 30 7.0 16.0 0.00 0.00 0.00 68 1010.0
20220705235359 87 41 7.0 19.0 0.00 0.00 0.00 60 1009.9
20220705234328 93 166 0.0 1.0 0.00 0.00 0.00 59 1008.5
20220705233340 94 166 0.0 0.0 0.00 0.00 0.00 56 1008.3
20220705232328 95 168 0.0 1.0 0.00 0.00 0.00 56 1008.2
20220705231337 96 168 0.0 2.0 0.00 0.00 0.00 54 1008.0
20220705230330 96 175 0.0 2.0 0.00 0.00 0.00 54 1008.2
20220705225328 97 175 0.0 2.0 0.00 0.00 0.00 52 1008.3
20220705224337 97 175 0.0 4.0 0.00 0.00 0.00 51 1008.5
20220705223326 98 137 0.0 3.0 0.00 0.00 0.00 50 1008.4
20220705222340 99 191 0.0 2.0 0.00 0.00 0.00 48 1008.5
20220705221328 100 218 2.0 5.0 0.00 0.00 0.00 47 1008.4
20220705220336 101 297 2.0 5.0 0.00 0.00 0.00 46 1008.2
20220705215339 102 238 1.0 3.0 0.00 0.00 0.00 44 1008.1
20220705214331 102 242 0.0 3.0 0.00 0.00 0.00 46 1007.8
20220705213339 101 150 1.0 4.0 0.00 0.00 0.00 46 1007.9
20220705212327 101 160 1.0 5.0 0.00 0.00 0.00 45 1007.9
20220705211337 100 231 1.0 5.0 0.00 0.00 0.00 46 1008.0
20220705210330 100 235 1.0 4.0 0.00 0.00 0.00 47 1008.1
20220705205328 99 234 1.0 4.0 0.00 0.00 0.00 48 1008.2
20220705204337 99 269 2.0 3.0 0.00 0.00 0.00 47 1008.3
20220705203326 99 215 1.0 4.0 0.00 0.00 0.00 48 1008.3
20220705202339 99 169 2.0 4.0 0.00 0.00 0.00 48 1008.3
20220705201327 99 283 1.0 4.0 0.00 0.00 0.00 50 1008.3
20220705200335 99 220 1.0 5.0 0.00 0.00 0.00 47 1008.4
20220705195336 99 224 1.0 3.0 0.00 0.00 0.00 48 1008.6
20220705194326 98 212 1.0 4.0 0.00 0.00 0.00 52 1008.7
20220705193333 98 226 1.0 3.0 0.00 0.00 0.00 52 1008.9
20220705192341 97 157 1.0 3.0 0.00 0.00 0.00 50 1009.0
20220705191333 98 214 2.0 5.0 0.00 0.00 0.00 49 1009.3
20220705190340 98 205 1.0 3.0 0.00 0.00 0.00 51 1009.4
20220705185340 97 224 1.0 4.0 0.00 0.00 0.00 50 1009.6
20220705184327 97 272 1.0 2.0 0.00 0.00 0.00 51 1009.6
20220705183338 96 225 1.0 2.0 0.00 0.00 0.00 50 1009.6
20220705182326 96 158 1.0 3.0 0.00 0.00 0.00 52 1009.7
20220705181335 95 197 1.0 4.0 0.00 0.00 0.00 52 1009.8
20220705180324 95 242 1.0 2.0 0.00 0.00 0.00 54 1009.8
20220705175329 95 221 1.0 2.0 0.00 0.00 0.00 56 1009.8
20220705174337 95 169 1.0 2.0 0.00 0.00 0.00 52 1009.9
20220705173327 95 218 0.0 4.0 0.00 0.00 0.00 53 1010.0
20220705172335 94 181 1.0 3.0 0.00 0.00 0.00 54 1010.1
20220705171329 93 172 1.0 2.0 0.00 0.00 0.00 59 1010.1
20220705170338 91 157 0.0 1.0 0.00 0.00 0.00 59 1010.0
20220705165341 90 232 1.0 4.0 0.00 0.00 0.00 58 1010.2